sat.trackr.live / text

‹ back to catalog

WGS F4 (USA 233)

NORAD 38070 · 2012-003A

PAYLOAD ACTIVE UNKNOWN

§ Identity

Operator
Country
US
Launch date
2012-01-20
Launch site
AFETR
Launch vehicle
Mass (kg)
RCS (m²)
15.86

Purposes: comms

External: N2YO · Heavens-Above · Gunter

§ Orbital elements

Epoch: 2026-05-25T02:26:52.768032Z

Period
1,436.15 min
Inclination
0.0150°
Eccentricity
0.0000984
Mean motion
1.00268422 rev/d
Perigee alt
35,783.4 km
Apogee alt
35,791.7 km
Semi-major
42,165.7 km
B*
0.0000e+0
RAAN
308.0334°
Arg perigee
342.4987°
Mean anomaly
77.3038°
Rev number
4,391

§ Raw data

WGS F4 (USA 233)1 38070U 12003A   26145.10199963  .00000000  00000+0  00000+0 0  99982 38070   0.0150 308.0334 0000984 342.4987  77.3038  1.00268422 43915

JSON: /api/v1/satellites/38070 · /tle

For live sub-satellite position, see the globe view (requires WebGL).

§ Visibility from observer

Set your observer location to see the next 7 days of passes ≥ 10°. The values pass through the URL so the page stays shareable.

No JS? Fill the form by hand. The geolocation button needs JavaScript.